Location: Axtheid
(49.6213°N, 11.8205°E)
Time: 11:34:27
(UTC+00:00)

Envisat - Visible Passes

Search period start: 18 January 2022 00:00
Search period end: 28 January 2022 00:00
Orbit: 764 x 766 km, 98.2° (Epoch: 17 January)

Date Brightness Start Highest point End Pass type
(mag) Time Alt. Az. Time Alt. Az. Time Alt. Az.
18 Jan 5.9 02:40:20 10° ENE 02:42:32 13° E 02:44:44 10° ESE visible
18 Jan 2.9 04:17:14 10° NNE 04:22:22 83° ESE 04:27:27 10° SSW visible
18 Jan 4.4 05:57:26 10° NNW 06:00:45 18° NW 06:04:04 10° W visible
19 Jan 4.1 03:40:33 10° NNE 03:45:23 41° E 03:50:09 10° SSE visible
19 Jan 3.6 05:19:48 10° N 05:24:17 32° WNW 05:28:44 10° SW visible
19 Jan 5.9 16:40:58 10° WSW 16:43:57 15° W 16:46:56 10° NW visible
20 Jan 5.3 03:04:21 10° NE 03:08:10 21° E 03:11:58 10° SE visible
20 Jan 2.9 04:42:35 10° N 04:47:37 62° WNW 04:52:36 10° SSW visible
21 Jan 3.2 04:05:40 10° NNE 04:10:45 68° ESE 04:15:49 10° S visible
21 Jan 4.2 05:45:33 10° N 05:49:18 21° WNW 05:53:03 10° WSW visible
22 Jan 4.5 03:29:06 10° NNE 03:33:42 33° E 03:38:16 10° SSE visible
22 Jan 3.4 05:08:04 10° N 05:12:46 39° WNW 05:17:27 10° SW visible
22 Jan 5.8 16:28:37 10° SW 16:32:13 19° W 16:35:49 10° NW visible
23 Jan 5.6 02:53:10 10° NE 02:56:26 17° E 02:59:41 10° SE visible
23 Jan 2.8 04:30:57 10° NNE 04:36:03 76° WNW 04:41:07 10° SSW visible
23 Jan 4.6 06:11:39 10° NNW 06:14:14 14° NW 06:16:50 10° W visible
24 Jan 3.6 03:54:07 10° NNE 03:59:08 54° E 04:04:05 10° S visible
24 Jan 3.9 05:33:43 10° N 05:37:50 25° WNW 05:41:56 10° WSW visible
24 Jan 6.2 16:56:13 10° WSW 16:57:51 11° W 16:59:31 10° WNW visible
25 Jan 4.9 03:17:41 10° NE 03:22:01 27° E 03:26:18 10° SSE visible
25 Jan 3.2 04:56:22 10° N 05:01:14 47° WNW 05:06:06 10° SW visible
26 Jan 5.8 02:42:11 10° NE 02:44:41 14° E 02:47:10 10° ESE visible
26 Jan 2.9 04:19:20 10° NNE 04:24:28 88° ESE 04:29:33 10° SSW visible
26 Jan 4.4 05:59:38 10° NNW 06:02:49 17° NW 06:05:59 10° W visible
27 Jan 4.0 03:42:36 10° NNE 03:47:29 44° E 03:52:19 10° S visible
27 Jan 3.7 05:21:56 10° N 05:26:21 30° WNW 05:30:44 10° WSW visible
27 Jan 6.0 16:43:20 10° WSW 16:46:05 15° W 16:48:52 10° NW visible
